Temperature
16 16 16 16 17 17 19 21 23 24 25 27 27 26 26 25 24 21 20 19 19 19 19 18 17 16 16 15 15 15 14 14 14 13 13 13 13 13 12 12 12 12 12 12 12 12 12 13 13
16 16 16 17 17 17 20 22 23 24 26 26 25 25 25 24 22 21 19 18 18 19 18 17 17 16 16 15 15 15 14 14 14 13 13 12 12 12 12 12 12 12 12 12 12 12 12 13 13
16 16 17 18 18 18 21 23 24 25 25 25 25 25 25 23 21 21 20 19 18 17 18 17 16 16 15 15 15 14 14 14 13 13 12 12 12 12 12 12 12 12 12 12 12 12 12 13 13
15 16 17 18 18 20 22 24 24 24 25 24 24 24 23 22 22 21 20 19 17 17 17 16 16 16 15 15 14 14 14 13 13 12 12 12 11 11 11 11 12 12 12 12 12 12 12 12 13
15 17 17 17 18 21 23 24 25 24 24 24 24 23 22 21 21 20 19 18 17 16 16 16 15 15 15 15 14 14 13 13 12 12 12 11 11 11 11 11 11 11 11 11 11 11 11 12 12
16 17 16 17 19 21 22 24 24 24 24 24 24 23 21 20 20 20 19 17 16 16 15 15 15 15 14 14 14 13 13 13 12 12 11 11 11 11 11 11 11 11 11 11 11 11 11 12 12
16 16 16 18 19 21 23 24 24 23 23 24 24 23 21 20 20 19 18 17 16 15 15 15 14 14 14 14 14 13 13 12 12 12 11 11 11 11 11 11 11 11 11 10 11 11 11 11 11
16 16 16 18 19 20 23 24 24 24 23 24 24 23 21 19 19 18 17 16 15 15 15 15 14 14 14 13 13 13 13 12 12 12 11 11 11 11 11 11 11 11 11 11 11 11 11 11 11
15 15 15 17 19 20 23 23 24 24 24 24 23 23 22 20 19 17 16 16 15 15 14 14 14 14 14 13 13 13 12 12 11 11 11 11 11 11 11 11 11 11 10 10 11 11 11 11 11
15 14 15 18 20 21 22 22 23 23 22 23 22 21 20 19 18 17 17 16 15 15 14 14 14 14 13 13 13 12 12 11 11 11 11 11 10 10 10 11 11 11 10 11 11 10 10 10 10
15 15 16 18 20 20 21 22 22 22 21 22 22 20 19 18 18 17 17 17 16 15 14 14 14 14 13 13 13 12 12 12 11 11 11 10 10 10 10 10 10 10 10 10 10 10 10 10 10
15 16 17 18 19 19 20 21 21 21 22 22 22 21 19 18 18 17 17 16 16 15 15 14 14 14 13 13 13 12 12 12 11 11 11 10 10 10 10 10 10 10 10 10 10 10 10 10 10
14 15 17 18 18 18 19 20 20 21 21 22 22 21 19 19 18 18 17 17 16 15 15 15 14 14 13 13 13 12 12 12 11 11 11 10 10 10 10 10 10 10 10 10 10 10 10 10 10
14 15 16 17 17 18 18 19 19 20 21 21 21 20 20 19 18 18 17 17 16 16 15 15 14 14 13 13 13 12 12 12 11 11 11 11 10 10 10 10 10 10 10 10 10 10 10 10 10
13 14 15 16 17 17 18 17 18 19 20 20 21 20 20 19 19 18 18 18 17 16 16 15 14 14 14 13 13 12 12 12 12 11 11 11 11 11 10 10 10 10 10 10 10 10 10 10 10
13 12 12 15 16 17 16 15 18 19 20 20 20 20 20 20 19 19 19 18 17 17 16 15 14 14 14 13 13 13 12 12 12 12 11 11 11 11 10 10 10 10 10 10 10 10 10 10 10
11 11 12 14 16 17 16 15 18 19 20 20 20 20 20 20 20 19 19 19 18 17 16 15 15 14 14 14 13 13 12 12 12 12 12 11 11 11 11 10 10 10 10 10 10 10 10 10 10
11 12 13 14 16 16 15 16 17 19 20 20 20 20 21 20 20 20 19 19 18 17 16 16 15 15 14 13 13 12 12 12 12 12 12 12 11 11 11 11 10 10 10 10 10 10 10 10 10
12 12 13 14 16 16 15 16 17 18 18 19 20 20 21 21 21 20 20 19 19 18 17 16 15 15 14 13 13 13 12 12 12 12 12 12 12 11 11 11 11 10 10 10 10 10 10 10 10
11 11 12 13 15 16 15 15 17 18 18 19 19 20 21 21 21 21 20 20 19 18 17 16 15 15 14 14 14 14 13 13 12 12 12 12 12 11 11 11 11 11 11 10 10 10 10 10 10
11 11 11 12 14 14 14 14 15 17 18 19 19 20 21 21 21 21 20 20 19 18 17 16 16 15 15 14 13 12 12 12 12 12 12 12 12 12 11 11 11 11 11 11 10 10 10 10 10
10 12 12 12 11 11 12 11 14 16 17 18 18 19 20 21 21 21 20 20 19 18 18 17 16 15 15 14 13 13 13 13 13 13 13 12 12 12 12 11 11 11 11 11 10 10 10 10 10
10 11 11 11 11 10 11 11 12 15 16 17 18 19 20 20 20 21 20 20 19 19 18 17 16 15 15 14 14 13 14 14 14 13 13 12 12 12 12 11 11 11 11 11 10 10 10 10 10
10 10 10 10 9 8 10 10 11 14 16 17 18 19 20 20 20 20 20 20 19 19 18 17 16 15 15 14 14 13 14 14 13 13 13 12 12 12 12 11 11 11 11 11 10 10 10 10 10
9 8 7 7 7 8 11 11 12 15 17 17 18 19 20 20 20 20 20 20 19 18 18 17 16 15 15 14 14 14 14 14 13 14 13 13 12 12 13 12 12 11 11 11 10 10 10 10 9
8 8 7 7 8 9 12 11 13 15 17 18 18 19 19 19 19 19 19 19 19 18 18 17 17 16 15 14 14 14 13 13 13 13 13 13 14 14 14 13 12 12 11 10 10 10 10 10 9
7 8 8 8 8 9 10 12 14 15 16 17 17 18 18 19 19 19 19 19 19 19 18 17 17 16 15 15 14 13 13 13 13 13 13 13 13 13 13 13 12 11 11 10 10 10 10 9 9
8 8 7 7 7 8 10 11 13 14 15 16 16 16 17 18 18 18 18 18 19 18 18 17 17 16 16 15 14 14 13 13 13 13 12 12 12 12 13 12 12 11 11 10 10 10 9 9 9
7 7 7 7 7 8 9 11 14 14 15 15 15 16 17 17 17 17 17 18 18 18 17 17 17 16 15 15 14 13 13 13 12 12 12 12 12 12 12 12 12 11 10 10 10 9 9 9 9
7 7 6 6 6 8 9 11 15 15 15 15 15 16 17 17 17 16 16 16 17 17 17 17 16 16 15 15 14 14 13 13 12 12 12 12 12 12 12 11 11 11 10 10 9 9 9 9 8
Wind_Speed
8 11 8 4 4 7 12 11 12 8 6 3 2 2 4 4 1 5 8 11 18 20 23 25 25 23 22 21 19 19 18 17 17 17 17 17 16 16 16 16 16 16 16 16 16 17 17 17 17
9 9 6 4 7 10 11 14 15 10 4 1 2 2 5 1 6 10 8 14 19 20 22 23 25 24 23 21 20 19 18 18 17 17 17 17 16 16 16 16 16 16 16 16 16 16 16 16 16
11 10 5 5 8 13 10 9 6 5 3 3 2 3 4 1 7 8 11 17 19 18 21 23 26 24 23 22 20 19 19 18 17 17 17 16 16 16 16 16 16 16 15 15 15 15 15 15 14
6 6 5 9 17 16 15 11 2 2 3 4 4 4 2 1 4 10 16 18 19 18 20 24 25 24 23 22 21 20 19 18 18 17 16 16 16 16 16 16 15 15 15 15 14 14 14 14 13
6 5 10 14 19 17 15 12 5 5 5 6 8 6 2 5 13 16 15 17 18 18 19 23 24 24 23 22 21 20 19 19 18 17 17 16 16 16 15 15 14 14 14 14 13 13 13 13 12
5 6 10 16 19 18 16 13 9 8 7 8 8 7 3 7 12 14 14 15 16 18 19 22 24 24 23 22 22 21 20 19 19 18 17 17 17 16 15 14 14 13 13 12 12 12 12 12 11
9 9 15 18 17 15 14 11 11 9 9 9 8 7 6 9 11 13 13 14 15 17 18 17 20 22 23 22 21 21 20 20 19 18 17 17 16 15 14 14 13 12 12 11 11 11 11 11 9
10 7 16 19 18 16 12 10 9 8 9 8 8 7 7 12 14 13 12 13 15 16 17 16 17 19 19 19 21 21 20 19 19 18 18 17 16 15 14 13 12 12 11 11 10 10 10 9 7
10 13 20 19 16 13 11 10 8 6 6 6 4 2 10 19 16 14 12 11 13 16 16 16 16 16 18 18 20 20 20 19 19 18 19 17 15 15 13 13 12 11 11 10 10 9 8 7 6
10 16 24 18 15 13 11 9 7 6 8 7 3 7 16 17 16 16 16 16 16 17 17 16 16 15 16 17 18 17 17 18 17 17 18 15 14 14 14 15 12 11 11 10 8 7 6 6 5
13 20 18 19 18 15 14 11 8 9 9 9 9 14 16 16 15 15 16 16 15 16 16 16 15 15 14 11 14 13 14 15 16 18 17 14 13 14 14 12 11 11 10 9 8 7 5 5 4
19 22 21 20 16 15 14 12 12 11 10 9 7 15 18 17 17 17 16 16 15 15 15 15 15 14 13 12 11 11 10 11 11 16 17 13 9 9 10 9 11 11 10 8 7 6 5 5 4
24 24 22 20 17 17 16 16 13 14 11 10 7 10 17 18 16 15 14 14 15 15 16 15 15 15 13 12 10 10 9 10 12 15 16 14 8 6 7 8 10 10 10 9 6 5 5 5 4
17 18 22 21 19 17 18 17 16 16 12 11 9 10 14 16 16 15 14 15 17 17 17 15 16 15 13 11 10 9 10 12 13 13 14 15 13 8 6 6 7 8 9 9 6 5 4 4 4
17 19 20 20 19 18 15 20 22 16 13 14 12 11 13 15 15 16 16 16 17 18 17 16 16 15 14 12 11 8 9 11 9 12 15 15 15 12 8 5 5 7 10 9 5 6 5 3 3
12 15 20 20 19 18 16 22 17 15 17 16 14 13 13 14 15 15 15 15 16 17 18 17 16 16 15 12 10 8 9 10 9 13 14 15 15 15 9 5 5 9 10 7 4 3 3 3 2
12 16 21 19 19 18 19 19 14 15 17 18 16 15 14 15 16 15 16 16 16 18 19 18 17 17 16 13 10 8 8 9 9 12 12 15 15 16 10 6 7 11 7 4 4 3 3 3 3
13 17 19 20 15 18 22 22 16 14 15 17 16 16 15 16 17 16 16 16 17 18 19 18 17 16 15 12 10 7 8 8 8 9 11 15 15 16 12 7 8 10 5 5 5 4 3 3 4
18 19 20 20 16 17 20 22 19 16 15 15 15 15 15 16 15 16 16 16 16 17 19 20 19 18 15 13 13 12 10 9 8 8 12 15 15 15 11 6 7 7 6 7 7 5 5 3 3
23 23 22 18 16 16 17 20 18 17 18 16 15 15 15 14 15 16 16 16 17 18 19 20 21 20 18 15 13 11 10 8 7 7 9 14 15 15 12 9 8 7 7 8 7 6 4 3 4
23 22 21 18 15 14 14 18 18 16 17 18 16 15 14 15 15 16 17 17 16 18 19 20 21 21 19 15 11 10 8 7 7 9 9 11 14 15 13 10 8 8 8 8 8 8 7 5 4
22 20 20 19 15 11 12 13 16 16 18 19 18 17 16 15 14 14 16 18 18 18 18 19 20 20 20 18 16 17 15 13 12 11 9 10 12 13 14 12 10 9 8 8 8 8 6 7 5
18 15 17 17 15 14 14 12 12 15 19 21 20 19 17 15 15 14 15 17 17 17 18 18 19 19 19 20 18 18 14 12 9 9 11 12 11 12 13 13 11 10 9 9 9 8 8 6 6
14 12 13 12 11 17 20 16 12 14 19 18 19 19 19 18 16 15 14 14 15 16 16 17 18 19 20 21 20 19 18 15 13 13 13 12 10 10 13 12 11 11 9 10 10 9 10 8 7
12 8 6 8 10 12 15 14 12 12 15 17 17 18 18 18 17 16 14 15 16 17 18 18 19 19 19 21 21 21 19 18 17 15 14 13 11 11 15 13 12 11 10 10 9 9 9 9 8
12 14 11 7 8 9 12 14 11 13 13 12 12 12 14 15 16 16 15 15 16 18 19 20 20 19 20 21 21 20 18 15 13 14 12 14 12 12 13 14 13 12 11 10 10 8 8 8 8
11 12 12 10 10 8 7 9 12 10 12 13 12 11 12 13 13 13 14 14 16 19 20 20 21 19 19 20 20 19 19 16 14 13 12 12 10 11 13 14 13 13 12 12 11 8 9 9 8
10 8 5 8 7 10 9 12 9 10 11 11 11 11 12 11 11 11 11 13 13 16 17 18 19 19 17 18 18 16 17 17 14 12 13 13 13 12 13 13 13 13 12 12 11 9 9 9 8
6 9 8 6 6 5 7 8 9 8 8 9 9 9 9 9 9 9 9 10 11 12 15 16 17 16 16 17 16 16 16 15 14 13 13 12 12 13 14 14 14 14 13 12 12 10 10 11 9
7 7 7 7 7 6 6 7 5 5 6 5 7 7 6 6 7 7 8 7 10 11 12 14 15 16 16 16 15 16 15 15 15 14 13 12 13 13 14 14 13 13 13 13 13 12 11 11 11
Wind_Direction
251 241 232 235 235 234 241 242 255 249 240 244 287 300 273 263 299 136 160 156 130 142 148 154 152 150 148 145 140 136 133 130 126 121 118 114 113 109 105 102 99 96 92 90 88 86 83 81 79
259 241 231 235 235 237 240 234 242 247 237 50 31 320 289 30 85 113 148 138 136 142 147 153 151 151 149 146 143 139 135 132 129 125 121 117 115 112 108 104 101 98 95 91 89 89 85 83 80
259 249 232 228 232 235 245 240 220 226 173 144 169 240 263 104 122 133 138 136 137 140 147 151 152 151 150 148 145 141 137 135 132 129 125 122 118 114 110 107 104 101 98 96 94 91 88 84 81
248 226 238 239 242 240 249 262 224 220 178 168 189 211 161 28 99 123 134 138 138 140 145 149 153 152 151 148 146 145 142 138 135 132 130 126 122 117 112 110 107 104 103 100 97 93 89 84 80
241 234 229 240 247 251 257 263 250 214 204 199 204 215 131 83 102 123 139 141 140 142 143 151 154 153 151 150 148 147 144 141 139 136 134 130 125 120 117 115 111 109 106 103 100 95 90 85 80
224 226 231 238 244 246 248 251 245 235 226 214 212 210 161 127 124 138 144 142 142 142 143 152 156 155 153 151 150 148 147 144 142 139 137 133 129 126 123 121 118 115 110 107 103 98 93 87 80
227 235 242 246 250 247 243 235 228 219 228 222 210 203 159 152 138 144 145 144 142 141 144 151 156 155 154 152 150 150 148 147 145 143 139 135 133 132 129 126 124 120 114 109 106 101 97 90 83
232 247 250 247 251 253 258 252 240 226 230 227 214 206 173 149 140 144 146 144 141 143 147 153 156 156 154 153 151 151 150 149 147 143 138 137 137 136 133 130 128 124 120 116 111 107 102 99 95
242 239 242 240 246 254 255 253 246 241 246 248 243 263 134 136 143 146 147 145 147 151 154 158 159 158 157 156 155 152 152 150 146 142 140 141 142 139 138 134 134 132 129 123 119 119 120 118 119
217 232 237 244 253 262 262 253 245 232 228 228 190 105 122 139 152 158 161 162 162 162 161 163 162 159 158 159 155 156 154 152 151 150 152 158 154 149 142 138 141 141 137 134 137 145 147 147 155
223 234 244 249 257 267 269 267 257 241 233 221 182 147 146 155 163 170 172 171 169 166 164 165 161 160 158 155 158 161 159 162 163 159 167 168 150 139 135 143 145 147 149 152 159 170 181 150 132
239 241 243 250 259 267 267 267 260 249 241 240 203 161 161 169 175 180 179 175 170 169 168 165 161 161 160 157 161 160 160 168 167 167 172 164 147 146 152 156 162 165 167 160 172 185 164 133 124
240 245 247 250 251 257 264 259 256 254 252 255 237 173 171 177 183 186 182 176 171 172 170 168 163 163 161 158 163 165 164 169 167 168 171 161 149 154 159 162 163 169 163 164 185 173 139 120 103
248 251 250 250 252 252 253 255 250 246 247 247 234 191 180 184 186 185 183 180 177 175 173 169 167 165 162 163 166 164 164 165 165 165 170 162 158 163 163 157 160 166 158 165 179 143 129 118 106
255 261 258 246 243 245 253 250 241 239 236 235 229 208 196 192 191 191 188 184 180 176 174 172 170 168 167 167 168 165 161 163 162 164 171 168 164 168 167 155 157 161 159 163 159 131 122 112 111
250 248 249 242 235 234 235 246 237 228 229 232 226 215 206 202 197 195 192 184 179 174 174 174 173 171 170 170 169 165 164 162 163 165 171 173 170 170 167 152 159 160 157 155 138 136 131 132 137
232 235 240 244 232 229 229 246 240 227 224 227 226 222 212 206 202 197 192 185 180 177 175 174 173 173 172 170 169 167 164 164 166 167 170 177 175 171 164 155 162 158 150 149 152 149 146 145 130
223 231 239 242 232 228 232 241 241 231 229 226 223 220 216 211 203 197 193 186 181 178 175 175 173 173 170 170 170 170 168 170 170 170 172 174 176 172 166 160 164 157 150 157 156 153 146 136 136
244 246 247 248 242 235 239 242 240 232 234 233 226 221 216 213 203 195 191 185 180 177 175 175 175 176 174 178 178 179 181 177 176 173 174 175 176 174 168 163 165 159 163 167 165 154 146 145 132
245 248 252 258 254 245 246 249 244 231 230 232 230 224 218 213 204 195 188 184 182 179 177 176 178 179 180 184 182 179 175 176 176 172 176 179 179 177 176 168 170 165 166 171 173 156 150 161 155
243 244 247 252 262 264 261 257 248 243 233 230 230 228 223 216 210 198 190 186 182 181 180 181 180 181 183 179 173 168 166 170 179 185 186 184 182 180 179 175 170 172 171 177 178 167 160 167 185
246 247 250 251 252 252 239 254 242 236 235 230 226 224 225 219 214 203 193 187 184 182 180 180 180 182 183 179 180 178 182 187 190 186 186 184 184 182 181 180 177 176 176 177 180 174 169 162 177
250 254 255 253 250 255 244 249 247 227 232 228 224 219 220 218 215 209 197 188 184 180 179 181 180 182 181 183 185 185 189 191 180 177 181 187 189 186 184 183 183 182 182 181 180 175 176 173 170
255 256 262 257 248 245 236 234 249 224 228 225 222 217 215 214 213 211 199 186 182 178 178 179 181 183 182 185 187 189 191 187 182 184 187 189 190 191 189 186 188 187 184 184 181 178 179 181 175
239 223 225 220 223 237 226 229 240 229 229 227 221 216 212 209 209 207 198 188 182 179 179 181 182 185 185 187 190 193 194 191 190 188 188 187 188 193 195 191 191 190 185 180 176 178 182 181 179
228 216 219 220 221 236 221 227 233 225 231 232 227 216 208 207 205 202 197 190 183 180 181 183 186 188 187 189 193 193 193 195 197 190 188 190 192 193 190 190 190 188 183 180 178 180 182 182 182
222 224 232 250 260 260 235 240 242 227 229 227 225 218 211 205 202 198 193 192 185 182 183 184 187 189 190 191 191 193 194 194 195 190 187 189 188 186 184 187 188 187 183 182 178 183 183 181 185
226 221 229 226 234 240 238 236 232 209 220 220 217 213 215 205 200 196 193 189 185 181 182 183 186 189 189 189 191 193 193 194 192 188 187 185 184 179 180 184 187 185 182 181 181 181 179 179 182
226 219 225 230 240 242 241 240 220 205 207 208 217 219 210 202 195 192 189 185 178 173 176 181 185 186 187 189 189 189 190 189 188 189 188 184 180 177 179 183 184 185 184 182 184 184 178 180 181
242 223 216 225 238 241 253 255 248 229 234 223 221 220 209 194 191 182 178 175 177 174 175 179 182 184 186 186 186 187 184 183 186 188 186 180 179 178 178 179 182 184 182 183 185 184 180 181 183
Height
1493 1495 1496 1499 1500 1497 1489 1475 1464 1460 1458 1458 1459 1460 1462 1465 1469 1478 1478 1479 1480 1482 1486 1491 1495 1499 1503 1506 1509 1512 1514 1517 1519 1521 1522 1524 1525 1527 1528 1529 1530 1532 1532 1533 1534 1534 1535 1535 1536
1492 1495 1498 1497 1496 1494 1481 1468 1463 1458 1456 1458 1460 1462 1464 1466 1468 1472 1475 1478 1479 1482 1486 1490 1495 1499 1502 1506 1509 1512 1514 1517 1519 1521 1523 1524 1526 1528 1529 1530 1531 1532 1533 1534 1535 1535 1536 1537 1537
1491 1494 1495 1491 1486 1483 1472 1457 1454 1454 1456 1459 1462 1464 1466 1468 1469 1471 1473 1476 1479 1482 1486 1490 1494 1498 1502 1505 1509 1512 1514 1517 1519 1521 1523 1525 1527 1528 1530 1531 1532 1533 1534 1535 1536 1537 1537 1538 1538
1491 1493 1491 1486 1478 1468 1461 1455 1453 1454 1457 1459 1463 1465 1466 1470 1469 1470 1472 1476 1479 1482 1486 1490 1494 1498 1502 1505 1508 1511 1514 1516 1519 1521 1523 1525 1527 1529 1530 1531 1533 1534 1535 1536 1537 1538 1538 1539 1540
1490 1488 1486 1480 1471 1462 1456 1452 1452 1454 1456 1459 1461 1463 1466 1468 1468 1470 1473 1476 1478 1482 1486 1490 1494 1498 1502 1505 1508 1511 1514 1516 1519 1521 1523 1525 1527 1529 1530 1532 1533 1535 1536 1537 1538 1539 1539 1540 1541
1487 1482 1481 1475 1466 1458 1454 1452 1451 1452 1454 1457 1459 1461 1465 1467 1467 1470 1473 1476 1479 1482 1485 1490 1494 1498 1501 1505 1508 1511 1514 1516 1519 1521 1523 1525 1527 1529 1531 1532 1534 1535 1537 1538 1539 1539 1540 1541 1541
1481 1477 1472 1465 1460 1454 1449 1448 1448 1450 1452 1454 1456 1459 1463 1466 1467 1470 1473 1477 1480 1482 1485 1489 1493 1497 1501 1505 1508 1511 1514 1516 1519 1521 1523 1525 1527 1529 1531 1532 1534 1536 1537 1538 1539 1540 1541 1542 1542
1475 1473 1466 1461 1458 1452 1446 1445 1445 1447 1449 1452 1454 1455 1459 1462 1465 1469 1473 1477 1480 1482 1485 1488 1492 1496 1500 1504 1507 1511 1513 1516 1519 1521 1523 1525 1527 1529 1531 1533 1534 1536 1537 1539 1540 1541 1542 1543 1543
1471 1470 1461 1455 1453 1449 1445 1443 1444 1446 1448 1449 1451 1452 1453 1457 1462 1467 1472 1476 1479 1482 1484 1488 1491 1495 1499 1503 1506 1510 1513 1516 1518 1521 1523 1525 1527 1529 1531 1533 1535 1536 1538 1539 1540 1541 1543 1544 1544
1463 1460 1451 1449 1447 1445 1443 1442 1443 1444 1446 1448 1450 1451 1453 1456 1460 1464 1468 1472 1476 1479 1483 1486 1490 1494 1498 1501 1505 1508 1512 1515 1517 1520 1522 1525 1527 1529 1531 1533 1535 1537 1538 1540 1541 1542 1543 1544 1545
1453 1449 1446 1446 1445 1444 1442 1441 1441 1442 1444 1445 1447 1449 1452 1455 1459 1462 1465 1468 1472 1476 1481 1485 1489 1492 1496 1499 1503 1507 1510 1513 1516 1519 1522 1524 1527 1529 1531 1533 1535 1537 1538 1540 1541 1543 1544 1545 1546
1448 1443 1444 1443 1443 1442 1441 1440 1440 1439 1441 1442 1443 1445 1447 1452 1455 1459 1463 1467 1471 1475 1479 1483 1487 1490 1494 1498 1501 1505 1508 1511 1515 1518 1521 1524 1526 1528 1530 1532 1534 1536 1538 1540 1542 1543 1544 1545 1546
1442 1439 1440 1440 1440 1440 1439 1438 1437 1437 1439 1440 1441 1442 1444 1447 1452 1456 1461 1465 1468 1472 1476 1481 1484 1488 1492 1496 1500 1503 1506 1510 1513 1517 1520 1522 1525 1527 1529 1532 1534 1536 1538 1540 1542 1543 1545 1545 1546
1437 1436 1436 1436 1436 1436 1436 1434 1435 1432 1436 1437 1438 1439 1441 1444 1449 1453 1458 1462 1465 1469 1473 1477 1481 1486 1490 1494 1497 1501 1505 1508 1512 1515 1518 1521 1523 1526 1529 1531 1533 1536 1538 1539 1541 1543 1544 1545 1546
1437 1435 1432 1429 1430 1431 1434 1431 1427 1429 1433 1433 1434 1435 1438 1442 1445 1449 1453 1456 1460 1464 1469 1474 1478 1483 1487 1491 1495 1499 1503 1506 1510 1513 1516 1519 1522 1524 1527 1530 1532 1535 1537 1539 1541 1542 1543 1544 1545
1434 1433 1430 1422 1424 1426 1433 1425 1419 1424 1427 1427 1429 1431 1434 1437 1441 1444 1448 1453 1457 1461 1465 1470 1474 1479 1483 1488 1493 1497 1501 1504 1507 1510 1514 1517 1520 1523 1525 1528 1530 1533 1535 1537 1539 1541 1542 1543 1544
1431 1428 1423 1418 1417 1419 1422 1417 1414 1418 1419 1420 1423 1425 1428 1431 1435 1439 1443 1448 1452 1456 1460 1465 1470 1474 1479 1484 1490 1494 1498 1501 1505 1508 1511 1514 1517 1520 1523 1526 1528 1531 1534 1536 1538 1539 1541 1542 1543
1422 1420 1416 1414 1410 1412 1413 1410 1409 1411 1412 1413 1415 1418 1421 1424 1427 1433 1437 1442 1447 1451 1456 1460 1465 1470 1475 1481 1486 1491 1495 1498 1502 1504 1508 1511 1514 1517 1520 1523 1526 1529 1531 1533 1535 1537 1539 1540 1541
1415 1414 1411 1406 1404 1407 1406 1404 1404 1405 1406 1406 1408 1410 1413 1417 1421 1426 1431 1436 1441 1446 1450 1455 1459 1465 1470 1475 1479 1484 1488 1493 1497 1501 1504 1508 1511 1514 1517 1520 1523 1525 1528 1530 1533 1535 1537 1538 1539
1413 1413 1409 1404 1402 1401 1401 1399 1397 1397 1398 1400 1401 1403 1406 1410 1414 1418 1423 1429 1433 1438 1443 1448 1453 1458 1463 1467 1472 1477 1483 1488 1493 1497 1500 1504 1507 1510 1513 1516 1519 1522 1525 1527 1530 1532 1534 1535 1537
1408 1408 1407 1406 1402 1399 1401 1399 1394 1390 1390 1392 1394 1396 1399 1402 1406 1411 1415 1420 1426 1431 1436 1441 1446 1451 1456 1462 1468 1474 1480 1485 1489 1492 1495 1499 1502 1506 1509 1512 1515 1518 1521 1523 1526 1528 1530 1532 1534
1404 1401 1402 1403 1406 1405 1403 1403 1390 1385 1384 1384 1385 1388 1391 1395 1399 1403 1407 1412 1417 1423 1429 1435 1440 1445 1450 1456 1461 1465 1469 1473 1477 1483 1488 1493 1497 1501 1505 1508 1511 1514 1517 1519 1522 1524 1526 1529 1530
1398 1399 1400 1400 1403 1405 1400 1401 1386 1379 1377 1375 1376 1379 1383 1387 1391 1395 1399 1404 1410 1416 1422 1428 1434 1439 1444 1449 1454 1459 1463 1468 1473 1479 1483 1488 1492 1496 1499 1503 1506 1509 1512 1515 1518 1520 1523 1524 1526
1396 1398 1399 1399 1402 1404 1394 1396 1383 1372 1366 1365 1366 1369 1373 1378 1383 1388 1393 1398 1403 1409 1415 1421 1427 1432 1437 1442 1447 1452 1456 1462 1467 1472 1476 1481 1485 1490 1494 1497 1501 1504 1507 1510 1513 1516 1518 1521 1522
1394 1402 1407 1405 1402 1392 1381 1383 1372 1358 1355 1355 1357 1360 1364 1369 1375 1380 1385 1390 1395 1401 1407 1413 1419 1425 1430 1435 1440 1445 1450 1455 1460 1464 1469 1474 1478 1482 1486 1490 1494 1498 1501 1505 1508 1511 1513 1516 1518
1390 1394 1399 1396 1390 1380 1371 1369 1357 1349 1348 1348 1350 1352 1356 1361 1366 1371 1376 1382 1387 1392 1398 1405 1411 1417 1423 1428 1433 1438 1444 1450 1455 1459 1463 1467 1471 1475 1480 1484 1488 1492 1496 1499 1503 1506 1508 1511 1513
1386 1387 1386 1388 1382 1380 1367 1355 1346 1342 1342 1342 1344 1346 1350 1353 1358 1363 1368 1374 1379 1384 1390 1396 1402 1409 1415 1421 1426 1432 1437 1443 1448 1453 1458 1462 1466 1470 1475 1479 1483 1487 1490 1494 1497 1500 1503 1506 1508
1379 1381 1387 1388 1383 1378 1365 1354 1346 1340 1339 1337 1339 1341 1344 1348 1352 1356 1361 1366 1372 1377 1383 1389 1395 1401 1407 1414 1419 1425 1430 1436 1441 1447 1452 1456 1460 1464 1468 1473 1477 1481 1485 1488 1492 1495 1498 1501 1503
1378 1381 1381 1381 1378 1373 1365 1351 1332 1332 1332 1333 1335 1336 1339 1342 1346 1350 1355 1360 1366 1371 1377 1382 1388 1395 1401 1407 1413 1419 1424 1430 1435 1440 1445 1450 1455 1459 1462 1466 1471 1475 1478 1482 1486 1489 1492 1495 1498
1374 1375 1379 1382 1377 1369 1363 1348 1325 1325 1326 1328 1330 1332 1335 1338 1342 1346 1351 1355 1360 1365 1371 1376 1382 1388 1394 1400 1406 1412 1418 1423 1429 1434 1439 1444 1449 1453 1457 1461 1465 1469 1473 1477 1480 1483 1487 1489 1492